Regional Weather Roundup
Issued by NWS

Home | Current Version | Previous Version | Text Only | Print | Product List | Glossary Off
Versions: 1 2 3 4 5 6 7 8 9 10 11 12 13 14 15 16 17 18 19 20 21 22 23 24 25 26 27 28 29 30 31 32 33 34 35 36 37 38 39 40 41 42 43 44 45 46 47 48 49 50

000
ASUS43 KMKX 231511
RWRWI

WISCONSIN REGIONAL WEATHER ROUNDUP
NATIONAL WEATHER SERVICE MILWAUKEE/SULLIVAN WI
1000 AM CDT WED AUG 23 2017

NOTE: "FAIR" INDICATES FEW OR NO CLOUDS BELOW 12,000 FEET WITH NO
SIGNIFICANT WEATHER AND/OR OBSTRUCTIONS TO VISIBILITY.

WIZ001-002-006>008-014>016-023>028-231600-
NORTHWEST WISCONSIN

CITY           SKY/WX    TMP DP  RH WIND       PRES   REMARKS
SUPERIOR ARPT    N/A     60  53  77 W3        30.09S
ASHLAND        PTSUNNY   63  52  67 NW7       30.08R
HAYWARD        MOSUNNY   61  51  70 VRB6      30.09S
SIREN          PTSUNNY   61  51  69 NE6       30.11R
CUMBERLAND     MOSUNNY   59  50  72 NW8       30.10S
RICE LAKE      MOSUNNY   61  53  74 NW5       30.12S
CHETEK         MOSUNNY   62  54  74 NW8       30.10S
LADYSMITH      MOSUNNY   63  53  72 NW9       30.10S
EAU CLAIRE     SUNNY     64  52  64 N7        30.08S
MENOMONIE      SUNNY     64  54  69 W8        30.10S
NEW RICHMOND   SUNNY     64  51  64 NW9       30.11S
OSCEOLA        SUNNY     62  53  71 N5        30.14S
$$

WIZ003>005-009-010-017-018-231600-
NORTH CENTRAL WISCONSIN

CITY           SKY/WX    TMP DP  RH WIND       PRES   REMARKS
MANITOWISH WTR PTSUNNY   57  56  95 N8        30.05F
ARBOR VITAE    PTSUNNY   59  53  80 NW13      30.05S
WOODRUFF       PTSUNNY   59  53  80 NW13      30.05S
RHINELANDER    PTSUNNY   60  51  72 W9        30.05S
EAGLE RIVER    PTSUNNY   60  49  67 N12G18    30.04R
LAND O LAKES   PTSUNNY   57  50  77 NW7       30.05S
PHILLIPS       CLOUDY    56  53  88 CALM      30.06F
TOMAHAWK         N/A     59  51  74 NW7       30.06S
MEDFORD        MOSUNNY   60  52  76 NW8       30.07S
MERRILL        PTSUNNY   57  54  88 NW7       30.07R
$$

WIZ029-030-035-036-043>047-231600-
CENTRAL WISCONSIN

CITY           SKY/WX    TMP DP  RH WIND       PRES   REMARKS
WAUSAU         PTSUNNY   58  51  78 NW8       30.04S
MOSINEE        MOSUNNY   61  54  77 NW13      30.07R
MARSHFIELD     SUNNY     63  51  65 NW13      30.06S
STEVENS POINT  MOSUNNY   62  51  68 NW8       30.05F
WAUPACA        SUNNY     67  54  61 W10       30.03F
WAUTOMA        SUNNY     65  53  65 NW8       30.05S
WISC RAPIDS    SUNNY     65  53  65 N13       30.07S
CAMP DOUGLAS   MOSUNNY   64  54  68 W5        30.07S
$$

WIZ011>013-019>022-031-037>040-048>050-231600-
NORTHEAST WISCONSIN

CITY           SKY/WX    TMP DP  RH WIND       PRES   REMARKS
ANTIGO         MOSUNNY   59  51  75 NW10G16   30.04F
SHAWANO        MOSUNNY   64  54  69 NW7       30.03R
OCONTO         MOSUNNY   63  52  67 NW7       30.01R
STURGEON BAY   MOSUNNY   62  53  72 NW13      30.01S
GREEN BAY      SUNNY     66  57  72 NW8       30.01S
MANITOWOC      SUNNY     65  53  65 NW13      30.02S
APPLETON       MOSUNNY   63  48  59 NW8       30.02R
CLINTONVILLE   SUNNY     63  52  67 NW8       30.03S
OSHKOSH        SUNNY     65  54  67 NW9       30.03R
$$

WIZ032>034-041-042-053>061-231600-
SOUTHWEST WISCONSIN

CITY           SKY/WX    TMP DP  RH WIND       PRES   REMARKS
LA CROSSE      SUNNY     68  53  58 NW7       30.08F
SPARTA         SUNNY     65  52  61 W7        30.09S
VIROQUA        SUNNY     63  54  71 N7        30.09F
BOSCOBEL       SUNNY     68  54  60 VRB5      30.08F
PRAIRIE DU CHI SUNNY     65  51  58 NW3       30.09S
PLATTEVILLE    SUNNY     65  58  76 NW5       30.10R
$$

WIZ056-057-062-063-064-067-068-231600-
SOUTH CENTRAL WISCONSIN

CITY           SKY/WX    TMP DP  RH WIND       PRES   REMARKS
REEDSBURG      SUNNY     65  54  67 W9        30.07S
BARABOO/DELLS  SUNNY     65  50  57 NW12      30.07S
LONE ROCK      SUNNY     66  54  65 NW9       30.07F
MINERAL POINT  SUNNY     68  55  64 NW8       30.09R
MADISON        SUNNY     65  54  67 NW8       30.05F
MIDDLETON      SUNNY     66  55  66 NW8G21    30.07S
WATERTOWN      SUNNY     64  56  75 NW10      30.04S
MONROE         SUNNY     64  52  63 NW6       30.07S
JANESVILLE     NOT AVBL
$$

WIZ051-052-058>065-066-070>072-231600-
SOUTHEAST WISCONSIN

CITY           SKY/WX    TMP DP  RH WIND       PRES   REMARKS
MILWAUKEE      MOSUNNY   69  51  52 NW12      30.02F
WAUKESHA       SUNNY     63  52  67 NW9       30.05S
MILWAUKEE/TIMM SUNNY     66  50  55 NW9       30.03S
RACINE         SUNNY     68  53  58 NW12      30.04S
KENOSHA        SUNNY     68  53  58 NW12      30.04R
FOND DU LAC    SUNNY     65  52  62 NW9       30.04R
SHEBOYGAN      SUNNY     66  55  67 NW10      30.02S
WEST BEND      SUNNY     63  52  67 NW9       30.03S
JUNEAU         SUNNY     63  54  73 W6        30.06S
$$

LSZ147-162-231600-
LAKE SUPERIOR

STATION/POSITION TIME  TEMP    WIND        PRES    WAVE
                       AIR SEA DIR/SP/G            HT/PER
                 (UTC) (F)     (DEG/KT/KT) (MB)    (FT/S)
W MID LAKE BUOY  1350   57 59  330/ 12/ 14 1017.1R   2/ 4
DEVILS ISLAND    1500   58      10/ 10/ 12 1018.6R
SAXON HARBOR     1440   61     310/ 11/ 14 1017.6S
$$

LMZ867-665-643>646-231600-
LAKE MICHIGAN

STATION/POSITION TIME  TEMP    WIND        PRES    WAVE
                       AIR SEA DIR/SP/G            HT/PER
                 (UTC) (F)     (DEG/KT/KT) (MB)    (FT/S)
S GREEN BAY BUOY 1500   63 70  330/ 12/ 14 1016.0
N MID LAKE BUOY  1450   59 66  310/ 16/ 19 1015.1R   3/ 4
NORTHPORT PIER   1440   62     310/ 12/ 16 1015.2R
KEWAUNEE LAKESHO 1448   64     340/ 10/ 15 1015.1R
SHEBOYGAN LAKESH 1500   63     340/  8/ 10 1016.3R
PORT WASHINGTON  1430   65     320/  7/ 12 1017.3S
ATWATER BUOY     1439   65 68  310/  8/ 12 1016.8R
MILWAUKEE LAKESH 1450   66     310/  7/ 10   N/A
S MID LAKE BUOY  1350   65 71  340/ 16/ 17 1015.9R   4/ 5
KENOSHA   LAKESH 1500   66     300/  9/ 16 1016.9
$$

TC  - TEMPERATURE IN CELSIUS
VSB - VISIBILITY IN STATUTE MILES
WCI - WIND CHILL INDEX
HX  - HEAT INDEX





USA.gov is the U.S. government's official web portal to all federal, state and local government web resources and services.